FW4350 Weather Reports


time (UTC)temp
C
wind
direction
speed
KPH
gust
KPH
rain 1hr
cm
rain 24hr
cm
rain mn
cm
humidity
%
barometer
mb
20260504042959 13 238 1.6 6.4 0.00 0.00 0.00 60 1005.4
20260504042459 14 229 0.0 6.4 0.00 0.00 0.00 60 1005.4
20260504042000 14 241 1.6 6.4 0.00 0.00 0.00 60 1005.4
20260504041458 14 211 0.0 8.0 0.00 0.00 0.00 59 1005.4
20260504041000 14 211 0.0 9.7 0.00 0.00 0.00 59 1005.4
20260504040005 14 227 0.0 8.0 0.00 0.00 0.00 58 1005.4
20260504035459 14 225 1.6 8.0 0.00 0.00 0.00 58 1005.5
20260504034959 14 225 1.6 6.4 0.00 0.00 0.00 58 1005.5
20260504034458 14 220 1.6 6.4 0.00 0.00 0.00 58 1005.5
20260504034001 14 226 0.0 4.8 0.00 0.00 0.00 57 1005.8
20260504033459 14 228 0.0 4.8 0.00 0.00 0.00 57 1005.8
20260504032959 14 236 0.0 4.8 0.00 0.00 0.00 57 1005.8
20260504032459 15 236 0.0 4.8 0.00 0.00 0.00 56 1005.9
20260504032000 14 240 0.0 3.2 0.00 0.00 0.00 56 1005.9
20260504031458 15 240 0.0 3.2 0.00 0.00 0.00 56 1005.9
20260504030500 15 227 0.0 3.2 0.00 0.00 0.00 56 1005.9
20260504025958 15 227 0.0 3.2 0.00 0.00 0.00 56 1005.9
20260504025457 15 230 0.0 4.8 0.00 0.00 0.00 55 1005.9
20260504024958 15 230 0.0 4.8 0.00 0.00 0.00 55 1005.9
20260504024458 15 230 0.0 3.2 0.00 0.00 0.00 55 1005.9
20260504023959 15 229 0.0 9.7 0.00 0.00 0.00 54 1005.9
20260504023457 15 235 0.0 9.7 0.00 0.00 0.00 54 1005.9
20260504022457 15 211 0.0 3.2 0.00 0.00 0.00 53 1005.8
20260504022003 15 211 0.0 3.2 0.00 0.00 0.00 53 1005.8
20260504021457 16 211 0.0 4.8 0.00 0.00 0.00 53 1005.8
20260504020457 16 228 0.0 3.2 0.00 0.00 0.00 52 1005.7
20260504015958 16 228 0.0 3.2 0.00 0.00 0.00 52 1005.7
20260504015457 16 229 1.6 8.0 0.00 0.00 0.00 51 1005.4
20260504014958 16 229 1.6 8.0 0.00 0.00 0.00 51 1005.4
20260504014457 16 236 1.6 9.7 0.00 0.00 0.00 51 1005.4
20260504014000 16 229 0.0 9.7 0.00 0.00 0.00 50 1005.3
20260504013500 16 253 0.0 8.0 0.00 0.00 0.00 50 1005.3
20260504012958 16 229 1.6 6.4 0.00 0.00 0.00 50 1005.3
20260504011958 17 263 1.6 8.0 0.00 0.00 0.00 49 1005.3
20260504011459 17 256 1.6 8.0 0.00 0.00 0.00 49 1005.3
20260504011004 17 225 1.6 6.4 0.00 0.00 0.00 48 1005.2
20260504010458 17 248 1.6 11.3 0.00 0.00 0.00 48 1005.2
20260504010004 17 237 1.6 11.3 0.00 0.00 0.00 47 1005.2
20260504005458 17 205 1.6 8.0 0.00 0.00 0.00 47 1005.3
20260504004959 18 200 0.0 3.2 0.00 0.00 0.00 46 1005.3
20260504004001 18 225 1.6 9.7 0.00 0.00 0.00 44 1005.3
20260504003459 18 213 1.6 8.0 0.00 0.00 0.00 44 1005.3
20260504002458 18 219 1.6 8.0 0.00 0.00 0.00 42 1005.3
20260504002001 18 232 1.6 8.0 0.00 0.00 0.00 42 1005.3
20260504001459 18 242 3.2 9.7 0.00 0.00 0.00 42 1005.3
20260504001005 19 211 3.2 11.3 0.00 0.00 0.00 41 1005.3
20260504000458 19 234 1.6 11.3 0.00 0.00 0.00 41 1005.3
20260504000009 19 223 3.2 11.3 0.00 0.00 0.00 41 1005.3
20260503235458 19 246 3.2 11.3 0.00 0.00 0.00 40 1005.3
20260503235001 19 229 3.2 11.3 0.00 0.00 0.00 40 1005.3
20260503234457 19 270 3.2 11.3 0.00 0.00 0.00 40 1005.3
20260503233957 20 261 3.2 11.3 0.00 0.00 0.00 40 1005.3
20260503233500 20 285 3.2 11.3 0.00 0.00 0.00 38 1005.3
20260503232959 20 288 4.8 11.3 0.00 0.00 0.00 38 1005.3
20260503232457 20 225 4.8 11.3 0.00 0.00 0.00 38 1005.3
20260503231958 20 163 4.8 17.7 0.00 0.00 0.00 40 1005.3
20260503231458 20 235 4.8 16.1 0.00 0.00 0.00 39 1005.3
20260503231000 20 219 4.8 14.5 0.00 0.00 0.00 38 1005.3
20260503230457 20 146 4.8 17.7 0.00 0.00 0.00 37 1005.3
20260503225958 20 214 4.8 17.7 0.00 0.00 0.00 41 1005.3
20260503224504 20 200 4.8 19.3 0.00 0.00 0.00 37 1005.4
20260503223958 21 231 3.2 19.3 0.00 0.00 0.00 38 1005.7
20260503223458 21 200 1.6 16.1 0.00 0.00 0.00 40 1005.7
20260503221958 20 241 1.6 17.7 0.00 0.00 0.00 39 1005.8
20260503221500 20 209 3.2 17.7 0.00 0.00 0.00 38 1005.8
20260503220959 20 225 3.2 14.5 0.00 0.00 0.00 38 1005.9
20260503220506 20 206 1.6 9.7 0.00 0.00 0.00 39 1005.9
20260503215459 19 206 3.2 19.3 0.00 0.00 0.00 38 1006.0
20260503215005 19 217 4.8 19.3 0.00 0.00 0.00 37 1006.0
20260503214457 20 186 4.8 14.5 0.00 0.00 0.00 40 1006.0
20260503213457 20 219 3.2 27.4 0.00 0.00 0.00 39 1006.4
20260503212458 19 189 3.2 20.9 0.00 0.00 0.00 40 1006.6
20260503211957 18 241 3.2 16.1 0.00 0.00 0.00 41 1006.6
20260503210959 18 218 4.8 17.7 0.00 0.00 0.00 37 1006.9
20260503210457 18 263 4.8 17.7 0.00 0.00 0.00 39 1006.9
20260503205958 18 171 4.8 19.3 0.00 0.00 0.00 38 1006.9
20260503204959 19 226 6.4 22.5 0.00 0.00 0.00 37 1007.1
20260503204457 19 215 6.4 17.7 0.00 0.00 0.00 37 1007.1
20260503203458 19 135 6.4 20.9 0.00 0.00 0.00 36 1007.5
20260503202457 20 229 6.4 16.1 0.00 0.00 0.00 35 1007.8
20260503201458 19 275 6.4 19.3 0.00 0.00 0.00 36 1007.8
20260503200958 19 236 6.4 19.3 0.00 0.00 0.00 36 1007.8
20260503200458 19 173 6.4 19.3 0.00 0.00 0.00 37 1007.8
20260503200002 19 235 6.4 19.3 0.00 0.00 0.00 40 1007.8
20260503195001 18 133 4.8 12.9 0.00 0.00 0.00 43 1007.9
20260503194459 18 163 4.8 16.1 0.00 0.00 0.00 44 1007.9
20260503193959 18 172 3.2 16.1 0.00 0.00 0.00 47 1008.0
20260503193505 17 171 3.2 12.9 0.00 0.00 0.00 47 1008.0
20260503193004 17 266 3.2 17.7 0.00 0.00 0.00 48 1008.0
20260503192459 17 149 4.8 17.7 0.00 0.00 0.00 45 1008.4
20260503192004 17 206 3.2 17.7 0.00 0.00 0.00 49 1008.4
20260503191457 16 211 3.2 17.7 0.00 0.00 0.00 51 1008.4
20260503191006 16 240 4.8 17.7 0.00 0.00 0.00 52 1008.5
20260503190458 16 188 4.8 19.3 0.00 0.00 0.00 53 1008.5
20260503185958 16 186 4.8 14.5 0.00 0.00 0.00 53 1008.5
20260503185456 15 280 3.2 14.5 0.00 0.00 0.00 54 1008.9
20260503184959 15 166 3.2 12.9 0.00 0.00 0.00 53 1008.9
20260503184500 15 235 3.2 12.9 0.00 0.00 0.00 55 1008.9
20260503183959 15 204 3.2 12.9 0.00 0.00 0.00 55 1009.4
20260503183459 15 187 3.2 11.3 0.00 0.00 0.00 58 1009.4
20260503182958 14 170 3.2 9.7 0.00 0.00 0.00 59 1009.4
20260503182457 13 188 1.6 14.5 0.00 0.00 0.00 63 1009.5
20260503181959 13 213 1.6 14.5 0.00 0.00 0.00 61 1009.5
20260503181457 12 247 3.2 9.7 0.00 0.00 0.00 63 1009.5
20260503180956 12 222 3.2 9.7 0.00 0.00 0.00 62 1009.9
20260503180459 12 176 3.2 9.7 0.00 0.00 0.00 63 1009.9
20260503175456 11 215 0.0 4.8 0.00 0.00 0.00 66 1010.5
20260503174957 11 155 1.6 4.8 0.00 0.00 0.00 68 1010.5
20260503173958 11 313 1.6 4.8 0.00 0.00 0.00 71 1011.0
20260503173456 11 198 1.6 4.8 0.00 0.00 0.00 72 1011.0
20260503173000 10 221 1.6 6.4 0.00 0.00 0.00 72 1011.0
20260503172456 10 259 1.6 6.4 0.00 0.00 0.00 73 1011.6
20260503171957 10 198 1.6 4.8 0.00 0.00 0.00 75 1011.6
20260503171457 10 242 1.6 8.0 0.00 0.00 0.00 72 1011.6
20260503170456 10 238 1.6 8.0 0.00 0.00 0.00 69 1011.8
20260503131006 8 227 1.6 12.9 0.00 0.00 0.00 58 1013.7
20260503130458 8 243 3.2 12.9 0.00 0.00 0.00 59 1013.7
20260503090458 6 231 0.0 6.4 0.00 0.00 0.00 57 1013.8
20260503081457 6 210 0.0 0.0 0.00 0.00 0.00 56 1014.1
20260503080958 6 209 0.0 0.0 0.00 0.00 0.00 55 1014.1
20260503080455 6 250 0.0 0.0 0.00 0.00 0.00 55 1014.1
20260503072456 6 249 0.0 0.0 0.00 0.00 0.00 54 1014.2
20260503071956 6 249 0.0 0.0 0.00 0.00 0.00 54 1014.2
20260503071455 6 245 0.0 0.0 0.00 0.00 0.00 55 1014.2
20260503070958 6 245 0.0 0.0 0.00 0.00 0.00 54 1014.3
20260503070454 6 245 0.0 0.0 0.00 0.00 0.00 54 1014.3
20260503055000 7 242 0.0 0.0 0.00 0.00 0.00 53 1014.9
20260503054500 7 242 0.0 0.0 0.00 0.00 0.00 52 1014.9
20260503053502 7 242 0.0 0.0 0.00 0.00 0.00 52 1015.0
20260503053004 7 242 0.0 0.0 0.00 0.00 0.00 51 1015.0
20260503052504 7 244 0.0 0.0 0.00 0.00 0.00 51 1015.2
20260503052000 7 244 0.0 0.0 0.00 0.00 0.00 52 1015.2
20260503051459 7 244 0.0 0.0 0.00 0.00 0.00 52 1015.2
20260503051004 7 244 0.0 0.0 0.00 0.00 0.00 52 1015.3
20260503050504 7 244 0.0 0.0 0.00 0.00 0.00 51 1015.3
20260503050008 7 244 0.0 0.0 0.00 0.00 0.00 51 1015.3
20260503045005 7 244 0.0 0.0 0.00 0.00 0.00 52 1015.3
20260503044503 7 244 0.0 0.0 0.00 0.00 0.00 51 1015.3
20260503043500 7 244 0.0 0.0 0.00 0.00 0.00 51 1015.3